{"data":{"norad_id":52659,"epoch":"2026-05-25T01:35:04.231680Z","epoch_age_seconds":69264,"freshness":"FRESH","line1":"1 52659U 22053D   26145.06602120  .00000159  00000+0  28077-4 0  9996","line2":"2 52659  53.2140 171.2018 0000970  65.6193 294.4900 15.08839312222756","mean_motion":15.08839312,"eccentricity":9.7e-5,"inclination_deg":53.214,"raan_deg":171.2018,"arg_perigee_deg":65.6193,"mean_anomaly_deg":294.49,"bstar":2.8077e-5,"rev_number":22275,"period_min":95.437598195347,"perigee_km":539.07445730395,"apogee_km":540.41652650738,"semimajor_km":6917.8824919057,"source":"CELESTRAK","updated_at":"2026-05-25T13:38:17.209509Z"}}